Time,TemperatureF,DewpointF,PressureIn,WindDirection,WindDirectionDegrees,WindSpeedMPH,WindSpeedGustMPH,Humidity,HourlyPrecipIn,Conditions,Clouds,dailyrainin,SoftwareType,DateUTC
2013-07-06 00:01:00,81.0,73.9,30.05,SW,235,0.0,1.0,79,0.00,,,0.00,WeatherCatV1.15B25,2013-07-06 04:01:00,
2013-07-06 00:02:00,80.9,73.8,30.05,NW,318,0.0,2.0,79,0.00,,,0.00,WeatherCatV1.15B25,2013-07-06 04:02:00,
2013-07-06 00:04:00,80.9,73.8,30.05,NW,319,0.0,2.0,79,0.00,,,0.00,WeatherCatV1.15B25,2013-07-06 04:04:00,
2013-07-06 00:09:00,80.8,73.7,30.06,NW,324,0.0,0.0,79,0.00,,,0.00,WeatherCatV1.15B25,2013-07-06 04:09:00,
2013-07-06 00:14:00,80.7,73.9,30.06,NNW,335,0.0,1.0,80,0.00,,,0.00,WeatherCatV1.15B25,2013-07-06 04:14:00,
2013-07-06 00:19:00,80.6,73.8,30.06,NNW,333,2.0,2.0,80,0.00,,,0.00,WeatherCatV1.15B25,2013-07-06 04:19:00,
2013-07-06 00:24:00,80.5,73.7,30.06,NW,317,1.0,2.0,80,0.00,,,0.00,WeatherCatV1.15B25,2013-07-06 04:24:00,
2013-07-06 00:29:00,80.4,73.6,30.06,North,8,0.0,1.0,80,0.00,,,0.00,WeatherCatV1.15B25,2013-07-06 04:29:00,
2013-07-06 00:34:00,80.5,73.7,30.06,NNW,334,0.0,1.0,80,0.00,,,0.00,WeatherCatV1.15B25,2013-07-06 04:34:00,
2013-07-06 00:39:00,80.4,74.0,30.06,NNW,340,0.0,1.0,81,0.00,,,0.00,WeatherCatV1.15B25,2013-07-06 04:39:00,
2013-07-06 00:44:00,80.3,73.9,30.06,NE,45,0.0,0.0,81,0.00,,,0.00,WeatherCatV1.15B25,2013-07-06 04:44:00,
2013-07-06 00:49:00,80.2,73.8,30.06,North,352,0.0,0.0,81,0.00,,,0.00,WeatherCatV1.15B25,2013-07-06 04:49:00,
2013-07-06 00:54:00,80.1,73.7,30.06,North,352,0.0,0.0,81,0.00,,,0.00,WeatherCatV1.15B25,2013-07-06 04:54:00,
2013-07-06 00:59:00,80.0,73.6,30.06,North,352,0.0,0.0,81,0.00,,,0.00,WeatherCatV1.15B25,2013-07-06 04:59:00,
2013-07-06 01:04:00,79.9,73.9,30.06,North,352,0.0,0.0,82,0.00,,,0.00,WeatherCatV1.15B25,2013-07-06 05:04:00,
2013-07-06 01:09:00,79.8,73.8,30.06,North,352,0.0,0.0,82,0.00,,,0.00,WeatherCatV1.15B25,2013-07-06 05:09:00,
2013-07-06 01:14:00,79.7,73.7,30.06,North,352,0.0,0.0,82,0.00,,,0.00,WeatherCatV1.15B25,2013-07-06 05:14:00,
2013-07-06 01:19:00,79.6,73.6,30.06,North,353,0.0,0.0,82,0.00,,,0.00,WeatherCatV1.15B25,2013-07-06 05:19:00,
2013-07-06 01:24:00,79.5,73.5,30.06,NE,39,0.0,0.0,82,0.00,,,0.00,WeatherCatV1.15B25,2013-07-06 05:24:00,
2013-07-06 01:29:00,79.4,73.8,30.06,NE,39,0.0,0.0,83,0.00,,,0.00,WeatherCatV1.15B25,2013-07-06 05:29:00,
2013-07-06 01:34:00,79.2,73.6,30.06,NE,39,0.0,0.0,83,0.00,,,0.00,WeatherCatV1.15B25,2013-07-06 05:34:00,
2013-07-06 01:39:00,79.0,73.4,30.05,NE,39,0.0,0.0,83,0.00,,,0.00,WeatherCatV1.15B25,2013-07-06 05:39:00,
2013-07-06 01:44:00,78.8,73.5,30.05,NE,39,0.0,0.0,84,0.00,,,0.00,WeatherCatV1.15B25,2013-07-06 05:44:00,
2013-07-06 01:49:00,78.7,73.4,30.05,NNE,27,0.0,0.0,84,0.00,,,0.00,WeatherCatV1.15B25,2013-07-06 05:49:00,
2013-07-06 01:54:00,78.6,73.3,30.05,NNE,27,0.0,0.0,84,0.00,,,0.00,WeatherCatV1.15B25,2013-07-06 05:54:00,
2013-07-06 01:59:00,78.4,73.5,30.05,NNE,27,0.0,0.0,85,0.00,,,0.00,WeatherCatV1.15B25,2013-07-06 05:59:00,
2013-07-06 02:04:00,78.3,73.4,30.05,NNE,27,0.0,0.0,85,0.00,,,0.00,WeatherCatV1.15B25,2013-07-06 06:04:00,
2013-07-06 02:09:00,78.2,73.3,30.05,NNE,28,0.0,0.0,85,0.00,,,0.00,WeatherCatV1.15B25,2013-07-06 06:09:00,
2013-07-06 02:14:00,78.1,73.6,30.05,NNE,27,0.0,0.0,86,0.00,,,0.00,WeatherCatV1.15B25,2013-07-06 06:14:00,
2013-07-06 02:19:00,78.1,73.6,30.05,NNE,27,0.0,0.0,86,0.00,,,0.00,WeatherCatV1.15B25,2013-07-06 06:19:00,
2013-07-06 02:24:00,78.1,73.6,30.05,NNE,28,0.0,0.0,86,0.00,,,0.00,WeatherCatV1.15B25,2013-07-06 06:24:00,
2013-07-06 02:29:00,77.9,73.4,30.05,NNE,28,0.0,0.0,86,0.00,,,0.00,WeatherCatV1.15B25,2013-07-06 06:29:00,
2013-07-06 02:34:00,77.9,73.4,30.05,NNE,28,0.0,0.0,86,0.00,,,0.00,WeatherCatV1.15B25,2013-07-06 06:34:00,
2013-07-06 02:39:00,77.8,73.3,30.05,NNE,28,0.0,0.0,86,0.00,,,0.00,WeatherCatV1.15B25,2013-07-06 06:39:00,
2013-07-06 02:44:00,77.7,73.5,30.05,NNE,28,0.0,0.0,87,0.00,,,0.00,WeatherCatV1.15B25,2013-07-06 06:44:00,
2013-07-06 02:49:00,77.6,73.4,30.05,NNE,28,0.0,0.0,87,0.00,,,0.00,WeatherCatV1.15B25,2013-07-06 06:49:00,
2013-07-06 02:54:00,77.6,73.4,30.05,NNE,28,0.0,0.0,87,0.00,,,0.00,WeatherCatV1.15B25,2013-07-06 06:54:00,
2013-07-06 02:59:00,77.5,73.3,30.05,NNE,28,0.0,0.0,87,0.00,,,0.00,WeatherCatV1.15B25,2013-07-06 06:59:00,
2013-07-06 03:04:00,77.4,73.2,30.05,NNE,28,0.0,0.0,87,0.00,,,0.00,WeatherCatV1.15B25,2013-07-06 07:04:00,
2013-07-06 03:09:00,77.4,73.2,30.05,NNE,28,0.0,0.0,87,0.00,,,0.00,WeatherCatV1.15B25,2013-07-06 07:09:00,
2013-07-06 03:14:00,77.2,73.0,30.05,NNE,28,0.0,0.0,87,0.00,,,0.00,WeatherCatV1.15B25,2013-07-06 07:14:00,
2013-07-06 03:19:00,77.1,72.9,30.05,NNE,28,0.0,0.0,87,0.00,,,0.00,WeatherCatV1.15B25,2013-07-06 07:19:00,
2013-07-06 03:24:00,77.0,73.2,30.05,NNE,28,0.0,0.0,88,0.00,,,0.00,WeatherCatV1.15B25,2013-07-06 07:24:00,
2013-07-06 03:29:00,76.9,73.1,30.05,NNE,28,0.0,0.0,88,0.00,,,0.00,WeatherCatV1.15B25,2013-07-06 07:29:00,
2013-07-06 03:34:00,77.0,73.2,30.05,NNE,28,0.0,0.0,88,0.00,,,0.00,WeatherCatV1.15B25,2013-07-06 07:34:00,
2013-07-06 03:39:00,77.0,72.8,30.05,NNE,28,0.0,0.0,87,0.00,,,0.00,WeatherCatV1.15B25,2013-07-06 07:39:00,
2013-07-06 03:44:00,77.0,72.8,30.05,NNE,28,0.0,0.0,87,0.00,,,0.00,WeatherCatV1.15B25,2013-07-06 07:44:00,
2013-07-06 03:49:00,77.0,72.8,30.05,NNE,30,0.0,0.0,87,0.00,,,0.00,WeatherCatV1.15B25,2013-07-06 07:49:00,
2013-07-06 03:54:00,76.9,72.7,30.05,NNE,30,0.0,1.0,87,0.00,,,0.00,WeatherCatV1.15B25,2013-07-06 07:54:00,
2013-07-06 03:59:00,77.1,72.9,30.05,NW,322,0.0,1.0,87,0.00,,,0.00,WeatherCatV1.15B25,2013-07-06 07:59:00,
2013-07-06 04:04:00,77.1,72.9,30.05,NW,321,0.0,0.0,87,0.00,,,0.00,WeatherCatV1.15B25,2013-07-06 08:04:00,
2013-07-06 04:10:00,77.0,72.8,30.05,NW,321,0.0,0.0,87,0.00,,,0.00,WeatherCatV1.15B25,2013-07-06 08:10:00,
2013-07-06 04:15:00,77.0,72.8,30.05,NW,321,0.0,0.0,87,0.00,,,0.00,WeatherCatV1.15B25,2013-07-06 08:15:00,
2013-07-06 04:20:00,76.9,72.7,30.05,East,101,0.0,2.0,87,0.00,,,0.00,WeatherCatV1.15B25,2013-07-06 08:20:00,
2013-07-06 04:25:00,76.9,72.7,30.05,East,101,0.0,0.0,87,0.00,,,0.00,WeatherCatV1.15B25,2013-07-06 08:25:00,
2013-07-06 04:30:00,76.8,72.6,30.05,East,101,0.0,0.0,87,0.00,,,0.00,WeatherCatV1.15B25,2013-07-06 08:30:00,
2013-07-06 04:35:00,76.6,72.4,30.05,East,101,0.0,0.0,87,0.00,,,0.00,WeatherCatV1.15B25,2013-07-06 08:35:00,
2013-07-06 04:40:00,76.5,72.7,30.05,East,101,0.0,0.0,88,0.00,,,0.00,WeatherCatV1.15B25,2013-07-06 08:40:00,
2013-07-06 04:45:00,76.4,72.6,30.05,East,101,0.0,1.0,88,0.00,,,0.00,WeatherCatV1.15B25,2013-07-06 08:45:00,
2013-07-06 04:50:00,76.3,72.5,30.05,East,101,0.0,0.0,88,0.00,,,0.00,WeatherCatV1.15B25,2013-07-06 08:50:00,
2013-07-06 04:55:00,76.2,72.4,30.05,East,101,0.0,0.0,88,0.00,,,0.00,WeatherCatV1.15B25,2013-07-06 08:55:00,
2013-07-06 05:00:00,76.1,72.3,30.05,East,96,0.0,0.0,88,0.00,,,0.00,WeatherCatV1.15B25,2013-07-06 09:00:00,
2013-07-06 05:05:00,76.1,72.3,30.05,East,96,0.0,0.0,88,0.00,,,0.00,WeatherCatV1.15B25,2013-07-06 09:05:00,
2013-07-06 05:10:00,76.1,72.3,30.05,East,96,0.0,1.0,88,0.00,,,0.00,WeatherCatV1.15B25,2013-07-06 09:10:00,
2013-07-06 05:15:00,76.1,72.3,30.05,East,84,0.0,1.0,88,0.00,,,0.00,WeatherCatV1.15B25,2013-07-06 09:15:00,
2013-07-06 05:20:00,76.1,72.3,30.05,East,84,0.0,0.0,88,0.00,,,0.00,WeatherCatV1.15B25,2013-07-06 09:20:00,
2013-07-06 05:25:00,76.2,72.4,30.05,NW,307,0.0,2.0,88,0.00,,,0.00,WeatherCatV1.15B25,2013-07-06 09:25:00,
2013-07-06 05:30:00,76.1,72.3,30.06,NW,321,0.0,1.0,88,0.00,,,0.00,WeatherCatV1.15B25,2013-07-06 09:30:00,
2013-07-06 05:35:00,76.2,72.4,30.05,WNW,293,0.0,0.0,88,0.00,,,0.00,WeatherCatV1.15B25,2013-07-06 09:35:00,
2013-07-06 05:40:00,76.1,72.3,30.06,WNW,293,0.0,0.0,88,0.00,,,0.00,WeatherCatV1.15B25,2013-07-06 09:40:00,
2013-07-06 05:45:00,76.1,72.3,30.05,WNW,293,0.0,0.0,88,0.00,,,0.00,WeatherCatV1.15B25,2013-07-06 09:45:00,
2013-07-06 05:50:00,76.0,72.2,30.05,WNW,293,0.0,0.0,88,0.00,,,0.00,WeatherCatV1.15B25,2013-07-06 09:50:00,
2013-07-06 05:55:00,75.9,72.1,30.06,WNW,293,0.0,0.0,88,0.00,,,0.00,WeatherCatV1.15B25,2013-07-06 09:55:00,
2013-07-06 06:00:00,75.9,72.4,30.06,WNW,293,0.0,0.0,89,0.00,,,0.00,WeatherCatV1.15B25,2013-07-06 10:00:00,
2013-07-06 06:05:00,75.8,72.3,30.06,WNW,293,0.0,0.0,89,0.00,,,0.00,WeatherCatV1.15B25,2013-07-06 10:05:00,
2013-07-06 06:10:00,75.8,72.3,30.06,WNW,293,0.0,0.0,89,0.00,,,0.00,WeatherCatV1.15B25,2013-07-06 10:10:00,
2013-07-06 06:15:00,75.8,72.3,30.06,WNW,293,0.0,0.0,89,0.00,,,0.00,WeatherCatV1.15B25,2013-07-06 10:15:00,
2013-07-06 06:20:00,75.8,72.3,30.06,WNW,293,0.0,0.0,89,0.00,,,0.00,WeatherCatV1.15B25,2013-07-06 10:20:00,
2013-07-06 06:25:00,75.8,72.6,30.06,WNW,293,0.0,0.0,90,0.00,,,0.00,WeatherCatV1.15B25,2013-07-06 10:25:00,
2013-07-06 06:30:00,75.9,72.4,30.06,WNW,296,0.0,1.0,89,0.00,,,0.00,WeatherCatV1.15B25,2013-07-06 10:30:00,
2013-07-06 06:35:00,76.2,72.7,30.07,WNW,296,0.0,0.0,89,0.00,,,0.00,WeatherCatV1.15B25,2013-07-06 10:35:00,
2013-07-06 06:40:00,76.4,72.9,30.06,WNW,296,0.0,1.0,89,0.00,,,0.00,WeatherCatV1.15B25,2013-07-06 10:40:00,
2013-07-06 06:45:00,76.7,72.9,30.07,NNW,347,0.0,1.0,88,0.00,,,0.00,WeatherCatV1.15B25,2013-07-06 10:45:00,
2013-07-06 06:50:00,77.3,73.1,30.06,NW,324,0.0,1.0,87,0.00,,,0.00,WeatherCatV1.15B25,2013-07-06 10:50:00,
2013-07-06 06:55:00,77.7,72.8,30.06,WNW,295,1.0,2.0,85,0.00,,,0.00,WeatherCatV1.15B25,2013-07-06 10:55:00,
2013-07-06 07:00:00,77.9,73.0,30.06,NW,321,0.0,3.0,85,0.00,,,0.00,WeatherCatV1.15B25,2013-07-06 11:00:00,
2013-07-06 07:05:00,78.1,72.9,30.06,West,280,1.0,4.0,84,0.00,,,0.00,WeatherCatV1.15B25,2013-07-06 11:05:00,
2013-07-06 07:10:00,78.3,73.1,30.06,West,279,2.0,4.0,84,0.00,,,0.00,WeatherCatV1.15B25,2013-07-06 11:10:00,
2013-07-06 07:15:00,78.5,72.9,30.06,WNW,284,3.0,4.0,83,0.00,,,0.00,WeatherCatV1.15B25,2013-07-06 11:15:00,
2013-07-06 07:20:00,78.7,73.1,30.06,WNW,291,4.0,4.0,83,0.00,,,0.00,WeatherCatV1.15B25,2013-07-06 11:20:00,
2013-07-06 07:25:00,78.9,73.3,30.06,WNW,289,3.0,4.0,83,0.00,,,0.00,WeatherCatV1.15B25,2013-07-06 11:25:00,
2013-07-06 07:30:00,79.1,73.1,30.06,West,277,0.0,3.0,82,0.00,,,0.00,WeatherCatV1.15B25,2013-07-06 11:30:00,
2013-07-06 07:35:00,79.3,73.3,30.06,West,276,1.0,4.0,82,0.00,,,0.00,WeatherCatV1.15B25,2013-07-06 11:35:00,
2013-07-06 07:40:00,79.6,73.6,30.06,NNE,20,1.0,3.0,82,0.00,,,0.00,WeatherCatV1.15B25,2013-07-06 11:40:00,
2013-07-06 07:45:00,79.9,73.2,30.06,WNW,293,6.0,6.0,80,0.00,,,0.00,WeatherCatV1.15B25,2013-07-06 11:45:00,
2013-07-06 07:50:00,80.1,73.0,30.06,WNW,297,4.0,5.0,79,0.00,,,0.00,WeatherCatV1.15B25,2013-07-06 11:50:00,
2013-07-06 07:55:00,80.4,73.3,30.06,WNW,285,1.0,2.0,79,0.00,,,0.00,WeatherCatV1.15B25,2013-07-06 11:55:00,
2013-07-06 08:00:00,80.5,73.0,30.06,NW,313,1.0,4.0,78,0.00,,,0.00,WeatherCatV1.15B25,2013-07-06 12:00:00,
2013-07-06 08:05:00,80.5,73.0,30.06,WNW,297,3.0,4.0,78,0.00,,,0.00,WeatherCatV1.15B25,2013-07-06 12:05:00,
2013-07-06 08:10:00,80.6,73.1,30.06,WNW,285,0.0,3.0,78,0.00,,,0.00,WeatherCatV1.15B25,2013-07-06 12:10:00,
2013-07-06 08:15:00,80.8,73.3,30.06,North,2,2.0,3.0,78,0.00,,,0.00,WeatherCatV1.15B25,2013-07-06 12:15:00,
2013-07-06 08:20:00,80.9,73.4,30.06,NNW,344,3.0,4.0,78,0.00,,,0.00,WeatherCatV1.15B25,2013-07-06 12:20:00,
2013-07-06 08:25:00,81.2,73.3,30.06,NW,308,2.0,4.0,77,0.00,,,0.00,WeatherCatV1.15B25,2013-07-06 12:25:00,
2013-07-06 08:30:00,81.3,73.4,30.06,North,349,2.0,7.0,77,0.00,,,0.00,WeatherCatV1.15B25,2013-07-06 12:30:00,
2013-07-06 08:35:00,81.4,73.1,30.06,NW,319,7.0,7.0,76,0.00,,,0.00,WeatherCatV1.15B25,2013-07-06 12:35:00,
2013-07-06 08:40:00,81.5,73.6,30.06,NW,325,3.0,8.0,77,0.00,,,0.00,WeatherCatV1.15B25,2013-07-06 12:40:00,
2013-07-06 08:45:00,81.8,73.1,30.06,WNW,293,3.0,3.0,75,0.00,,,0.00,WeatherCatV1.15B25,2013-07-06 12:45:00,
2013-07-06 08:50:00,82.2,73.1,30.06,West,262,0.0,6.0,74,0.00,,,0.00,WeatherCatV1.15B25,2013-07-06 12:50:00,
2013-07-06 08:55:00,82.4,73.3,30.05,WNW,296,2.0,3.0,74,0.00,,,0.00,WeatherCatV1.15B25,2013-07-06 12:55:00,
2013-07-06 09:00:00,82.6,73.8,30.05,NNE,30,1.0,1.0,75,0.00,,,0.00,WeatherCatV1.15B25,2013-07-06 13:00:00,
2013-07-06 09:05:00,82.9,74.1,30.05,NW,316,1.0,2.0,75,0.00,,,0.00,WeatherCatV1.15B25,2013-07-06 13:05:00,
2013-07-06 09:10:00,83.0,73.0,30.05,NNE,18,2.0,7.0,72,0.00,,,0.00,WeatherCatV1.15B25,2013-07-06 13:10:00,
2013-07-06 09:15:00,83.2,73.2,30.04,North,352,2.0,6.0,72,0.00,,,0.00,WeatherCatV1.15B25,2013-07-06 13:15:00,
2013-07-06 09:20:00,83.4,72.6,30.04,WNW,295,3.0,4.0,70,0.00,,,0.00,WeatherCatV1.15B25,2013-07-06 13:20:00,
2013-07-06 09:25:00,83.8,73.4,30.04,WNW,287,1.0,7.0,71,0.00,,,0.00,WeatherCatV1.15B25,2013-07-06 13:25:00,
2013-07-06 09:30:00,84.0,72.7,30.04,NNW,340,1.0,2.0,69,0.00,,,0.00,WeatherCatV1.15B25,2013-07-06 13:30:00,
2013-07-06 09:35:00,84.1,72.4,30.04,North,11,1.0,5.0,68,0.00,,,0.00,WeatherCatV1.15B25,2013-07-06 13:35:00,
2013-07-06 09:40:00,84.1,71.9,30.04,NNW,346,2.0,5.0,67,0.00,,,0.00,WeatherCatV1.15B25,2013-07-06 13:40:00,
2013-07-06 09:45:00,84.3,72.6,30.04,NW,325,4.0,6.0,68,0.00,,,0.00,WeatherCatV1.15B25,2013-07-06 13:45:00,
2013-07-06 09:50:00,84.7,72.9,30.04,SSE,150,1.0,1.0,68,0.00,,,0.00,WeatherCatV1.15B25,2013-07-06 13:50:00,
2013-07-06 09:55:00,84.8,72.1,30.04,NNW,329,2.0,3.0,66,0.00,,,0.00,WeatherCatV1.15B25,2013-07-06 13:55:00,
2013-07-06 10:00:00,84.8,71.7,30.04,NNE,16,0.0,4.0,65,0.00,,,0.00,WeatherCatV1.15B25,2013-07-06 14:00:00,
2013-07-06 10:05:00,85.1,71.5,30.04,NNW,347,1.0,3.0,64,0.00,,,0.00,WeatherCatV1.15B25,2013-07-06 14:05:00,
2013-07-06 10:10:00,85.2,71.6,30.03,NNW,329,2.0,4.0,64,0.00,,,0.00,WeatherCatV1.15B25,2013-07-06 14:10:00,
2013-07-06 10:15:00,85.4,71.3,30.03,SW,228,3.0,5.0,63,0.00,,,0.00,WeatherCatV1.15B25,2013-07-06 14:15:00,
2013-07-06 10:20:00,85.4,71.3,30.03,North,359,3.0,5.0,63,0.00,,,0.00,WeatherCatV1.15B25,2013-07-06 14:20:00,
2013-07-06 10:25:00,85.4,71.8,30.03,NNW,330,1.0,5.0,64,0.00,,,0.00,WeatherCatV1.15B25,2013-07-06 14:25:00,
2013-07-06 10:30:00,85.7,72.1,30.03,North,5,1.0,3.0,64,0.00,,,0.00,WeatherCatV1.15B25,2013-07-06 14:30:00,
2013-07-06 10:35:00,86.1,72.5,30.03,WNW,300,1.0,4.0,64,0.00,,,0.00,WeatherCatV1.15B25,2013-07-06 14:35:00,
2013-07-06 10:40:00,86.3,72.2,30.03,North,354,1.0,5.0,63,0.00,,,0.00,WeatherCatV1.15B25,2013-07-06 14:40:00,
2013-07-06 10:45:00,86.4,72.3,30.03,East,84,1.0,6.0,63,0.00,,,0.00,WeatherCatV1.15B25,2013-07-06 14:45:00,
2013-07-06 10:50:00,86.7,71.6,30.03,NNW,329,1.0,6.0,61,0.00,,,0.00,WeatherCatV1.15B25,2013-07-06 14:50:00,
2013-07-06 10:55:00,86.6,72.0,30.04,East,96,2.0,7.0,62,0.00,,,0.00,WeatherCatV1.15B25,2013-07-06 14:55:00,
2013-07-06 11:00:00,87.1,71.5,30.04,WNW,290,4.0,5.0,60,0.00,,,0.00,WeatherCatV1.15B25,2013-07-06 15:00:00,
2013-07-06 11:05:00,87.3,71.2,30.04,North,358,0.0,4.0,59,0.00,,,0.00,WeatherCatV1.15B25,2013-07-06 15:05:00,
2013-07-06 11:10:00,87.2,70.6,30.04,WNW,300,5.0,11.0,58,0.00,,,0.00,WeatherCatV1.15B25,2013-07-06 15:10:00,
2013-07-06 11:15:00,87.1,71.0,30.03,NNW,342,4.0,8.0,59,0.00,,,0.00,WeatherCatV1.15B25,2013-07-06 15:15:00,
2013-07-06 11:20:00,87.3,71.7,30.03,North,359,1.0,5.0,60,0.00,,,0.00,WeatherCatV1.15B25,2013-07-06 15:20:00,
2013-07-06 11:25:00,87.5,71.9,30.03,NNW,330,2.0,5.0,60,0.00,,,0.00,WeatherCatV1.15B25,2013-07-06 15:25:00,
2013-07-06 11:30:00,87.4,71.8,30.03,NNW,327,3.0,10.0,60,0.00,,,0.00,WeatherCatV1.15B25,2013-07-06 15:30:00,
2013-07-06 11:35:00,87.7,72.1,30.03,NNW,327,2.0,3.0,60,0.00,,,0.00,WeatherCatV1.15B25,2013-07-06 15:35:00,
2013-07-06 11:40:00,87.9,71.2,30.03,North,352,3.0,7.0,58,0.00,,,0.00,WeatherCatV1.15B25,2013-07-06 15:40:00,
2013-07-06 11:45:00,88.1,71.4,30.03,NNW,333,4.0,5.0,58,0.00,,,0.00,WeatherCatV1.15B25,2013-07-06 15:45:00,
2013-07-06 11:50:00,87.9,71.2,30.03,WNW,302,7.0,7.0,58,0.00,,,0.00,WeatherCatV1.15B25,2013-07-06 15:50:00,
2013-07-06 11:55:00,87.9,71.7,30.03,North,7,3.0,5.0,59,0.00,,,0.00,WeatherCatV1.15B25,2013-07-06 15:55:00,
2013-07-06 12:01:00,87.9,70.7,30.03,NW,307,5.0,6.0,57,0.00,,,0.00,WeatherCatV1.15B25,2013-07-06 16:01:00,
2013-07-06 12:06:00,88.1,70.9,30.03,NW,315,3.0,9.0,57,0.00,,,0.00,WeatherCatV1.15B25,2013-07-06 16:06:00,
2013-07-06 12:11:00,88.4,70.7,30.03,NNW,328,4.0,6.0,56,0.00,,,0.00,WeatherCatV1.15B25,2013-07-06 16:11:00,
2013-07-06 12:16:00,88.5,70.2,30.03,WNW,291,4.0,6.0,55,0.00,,,0.00,WeatherCatV1.15B25,2013-07-06 16:16:00,
2013-07-06 12:21:00,88.6,70.9,30.03,WNW,288,2.0,9.0,56,0.00,,,0.00,WeatherCatV1.15B25,2013-07-06 16:21:00,
2013-07-06 12:26:00,88.8,72.1,30.02,NE,36,0.0,2.0,58,0.00,,,0.00,WeatherCatV1.15B25,2013-07-06 16:26:00,
2013-07-06 12:31:00,89.1,71.8,30.03,NNW,329,5.0,9.0,57,0.00,,,0.00,WeatherCatV1.15B25,2013-07-06 16:31:00,
2013-07-06 12:36:00,88.9,71.7,30.02,North,6,2.0,3.0,57,0.00,,,0.00,WeatherCatV1.15B25,2013-07-06 16:36:00,
2013-07-06 12:41:00,88.6,71.4,30.02,ENE,68,5.0,7.0,57,0.00,,,0.00,WeatherCatV1.15B25,2013-07-06 16:41:00,
2013-07-06 12:46:00,88.5,71.3,30.02,NNW,347,4.0,6.0,57,0.00,,,0.00,WeatherCatV1.15B25,2013-07-06 16:46:00,
2013-07-06 12:52:00,88.6,71.9,30.02,NNW,331,2.0,4.0,58,0.00,,,0.00,WeatherCatV1.15B25,2013-07-06 16:52:00,
2013-07-06 12:58:00,88.8,71.6,30.02,NE,46,2.0,4.0,57,0.00,,,0.00,WeatherCatV1.15B25,2013-07-06 16:58:00,
2013-07-06 13:03:00,88.8,72.1,30.02,WNW,302,4.0,6.0,58,0.00,,,0.00,WeatherCatV1.15B25,2013-07-06 17:03:00,
2013-07-06 13:09:00,89.0,71.8,30.02,NNW,340,3.0,5.0,57,0.00,,,0.00,WeatherCatV1.15B25,2013-07-06 17:09:00,
2013-07-06 13:14:00,88.9,71.1,30.02,West,271,3.0,7.0,56,0.00,,,0.00,WeatherCatV1.15B25,2013-07-06 17:14:00,
2013-07-06 13:20:00,88.9,71.7,30.02,NW,325,0.0,3.0,57,0.00,,,0.00,WeatherCatV1.15B25,2013-07-06 17:20:00,
2013-07-06 13:25:00,89.3,71.0,30.02,NNW,342,2.0,4.0,55,0.00,,,0.00,WeatherCatV1.15B25,2013-07-06 17:25:00,
2013-07-06 13:30:00,89.3,71.0,30.02,NNW,347,2.0,4.0,55,0.00,,,0.00,WeatherCatV1.15B25,2013-07-06 17:30:00,
2013-07-06 13:36:00,89.8,72.5,30.02,NNW,333,1.0,2.0,57,0.00,,,0.00,WeatherCatV1.15B25,2013-07-06 17:36:00,
2013-07-06 13:42:00,89.9,69.9,30.02,NNW,342,3.0,8.0,52,0.00,,,0.00,WeatherCatV1.15B25,2013-07-06 17:42:00,
2013-07-06 13:48:00,89.2,70.3,30.02,NW,307,5.0,5.0,54,0.00,,,0.00,WeatherCatV1.15B25,2013-07-06 17:48:00,
2013-07-06 13:53:00,89.3,69.3,30.01,NNW,335,5.0,6.0,52,0.00,,,0.00,WeatherCatV1.15B25,2013-07-06 17:53:00,
2013-07-06 13:59:00,90.0,70.0,30.02,NNE,14,1.0,7.0,52,0.00,,,0.00,WeatherCatV1.15B25,2013-07-06 17:59:00,
2013-07-06 14:04:00,90.1,70.1,30.02,NNW,345,2.0,4.0,52,0.00,,,0.00,WeatherCatV1.15B25,2013-07-06 18:04:00,
2013-07-06 14:09:00,89.9,70.4,30.02,ENE,69,2.0,8.0,53,0.00,,,0.00,WeatherCatV1.15B25,2013-07-06 18:09:00,
2013-07-06 14:14:00,89.7,70.3,30.01,NW,323,1.0,7.0,53,0.00,,,0.00,WeatherCatV1.15B25,2013-07-06 18:14:00,
2013-07-06 14:19:00,89.7,69.7,30.01,North,356,1.0,11.0,52,0.00,,,0.00,WeatherCatV1.15B25,2013-07-06 18:19:00,
2013-07-06 14:25:00,89.9,70.4,30.01,NE,36,1.0,6.0,53,0.00,,,0.00,WeatherCatV1.15B25,2013-07-06 18:25:00,
2013-07-06 14:30:00,90.4,70.9,30.02,NNW,337,1.0,3.0,53,0.00,,,0.00,WeatherCatV1.15B25,2013-07-06 18:30:00,
2013-07-06 14:35:00,90.2,69.6,30.01,West,281,2.0,12.0,51,0.00,,,0.00,WeatherCatV1.15B25,2013-07-06 18:35:00,
2013-07-06 14:40:00,90.4,69.2,30.01,NNW,341,3.0,6.0,50,0.00,,,0.00,WeatherCatV1.15B25,2013-07-06 18:40:00,
2013-07-06 14:45:00,90.2,68.4,30.01,NW,315,2.0,11.0,49,0.00,,,0.00,WeatherCatV1.15B25,2013-07-06 18:45:00,
2013-07-06 14:50:00,90.1,68.9,30.01,NW,324,2.0,6.0,50,0.00,,,0.00,WeatherCatV1.15B25,2013-07-06 18:50:00,
2013-07-06 14:55:00,90.0,69.4,30.00,NNW,340,2.0,7.0,51,0.00,,,0.00,WeatherCatV1.15B25,2013-07-06 18:55:00,
2013-07-06 15:00:00,90.5,69.3,30.00,ESE,121,2.0,5.0,50,0.00,,,0.00,WeatherCatV1.15B25,2013-07-06 19:00:00,
2013-07-06 15:05:00,90.5,69.9,30.01,NE,46,1.0,3.0,51,0.00,,,0.00,WeatherCatV1.15B25,2013-07-06 19:05:00,
2013-07-06 15:11:00,90.5,69.3,30.00,NNW,329,3.0,9.0,50,0.00,,,0.00,WeatherCatV1.15B25,2013-07-06 19:11:00,
2013-07-06 15:17:00,90.6,69.4,30.00,NNW,344,5.0,8.0,50,0.00,,,0.00,WeatherCatV1.15B25,2013-07-06 19:17:00,
2013-07-06 15:22:00,90.4,69.2,30.00,NNW,339,3.0,10.0,50,0.00,,,0.00,WeatherCatV1.15B25,2013-07-06 19:22:00,
2013-07-06 15:27:00,90.2,68.4,30.00,NNE,27,2.0,7.0,49,0.00,,,0.00,WeatherCatV1.15B25,2013-07-06 19:27:00,
2013-07-06 15:32:00,90.3,69.7,30.00,NW,319,1.0,6.0,51,0.00,,,0.00,WeatherCatV1.15B25,2013-07-06 19:32:00,
2013-07-06 15:37:00,90.3,69.7,30.00,NNW,328,4.0,4.0,51,0.00,,,0.00,WeatherCatV1.15B25,2013-07-06 19:37:00,
2013-07-06 15:42:00,90.4,69.2,30.00,NW,320,4.0,9.0,50,0.00,,,0.00,WeatherCatV1.15B25,2013-07-06 19:42:00,
2013-07-06 15:47:00,90.4,69.2,29.99,WSW,255,5.0,10.0,50,0.00,,,0.00,WeatherCatV1.15B25,2013-07-06 19:47:00,
2013-07-06 15:52:00,90.1,68.3,29.99,West,267,2.0,10.0,49,0.00,,,0.00,WeatherCatV1.15B25,2013-07-06 19:52:00,
2013-07-06 15:57:00,90.1,68.3,29.99,WNW,291,4.0,9.0,49,0.00,,,0.00,WeatherCatV1.15B25,2013-07-06 19:57:00,
2013-07-06 16:02:00,90.2,69.0,29.99,WSW,252,3.0,10.0,50,0.00,,,0.00,WeatherCatV1.15B25,2013-07-06 20:02:00,
2013-07-06 16:07:00,90.4,68.6,29.99,NNE,27,3.0,7.0,49,0.00,,,0.00,WeatherCatV1.15B25,2013-07-06 20:07:00,
2013-07-06 16:12:00,90.4,68.6,29.99,North,358,4.0,6.0,49,0.00,,,0.00,WeatherCatV1.15B25,2013-07-06 20:12:00,
2013-07-06 16:18:00,90.2,69.0,29.99,WNW,290,3.0,4.0,50,0.00,,,0.00,WeatherCatV1.15B25,2013-07-06 20:18:00,
2013-07-06 16:23:00,90.1,68.9,29.99,North,1,2.0,7.0,50,0.00,,,0.00,WeatherCatV1.15B25,2013-07-06 20:23:00,
2013-07-06 16:29:00,90.1,69.5,29.99,NW,314,1.0,8.0,51,0.00,,,0.00,WeatherCatV1.15B25,2013-07-06 20:29:00,
2013-07-06 16:34:00,90.2,70.2,29.98,NNE,16,1.0,2.0,52,0.00,,,0.00,WeatherCatV1.15B25,2013-07-06 20:34:00,
2013-07-06 16:39:00,90.2,70.2,29.98,NW,325,2.0,3.0,52,0.00,,,0.00,WeatherCatV1.15B25,2013-07-06 20:39:00,
2013-07-06 16:44:00,90.0,69.4,29.98,NNW,331,4.0,9.0,51,0.00,,,0.00,WeatherCatV1.15B25,2013-07-06 20:44:00,
2013-07-06 16:50:00,89.9,69.9,29.98,NW,304,2.0,6.0,52,0.00,,,0.00,WeatherCatV1.15B25,2013-07-06 20:50:00,
2013-07-06 16:55:00,89.9,69.9,29.98,NNE,13,2.0,6.0,52,0.00,,,0.00,WeatherCatV1.15B25,2013-07-06 20:55:00,
2013-07-06 17:00:00,90.1,70.6,29.98,NNW,333,1.0,6.0,53,0.00,,,0.00,WeatherCatV1.15B25,2013-07-06 21:00:00,
2013-07-06 17:05:00,90.4,70.3,29.98,NW,307,3.0,10.0,52,0.00,,,0.00,WeatherCatV1.15B25,2013-07-06 21:05:00,
2013-07-06 17:10:00,89.9,69.3,29.98,WNW,284,2.0,8.0,51,0.00,,,0.00,WeatherCatV1.15B25,2013-07-06 21:10:00,
2013-07-06 17:15:00,89.6,68.5,29.97,NNW,329,2.0,8.0,50,0.00,,,0.00,WeatherCatV1.15B25,2013-07-06 21:15:00,
2013-07-06 17:21:00,89.5,67.8,29.98,WNW,295,4.0,6.0,49,0.00,,,0.00,WeatherCatV1.15B25,2013-07-06 21:21:00,
2013-07-06 17:26:00,89.3,68.2,29.97,NNW,339,2.0,3.0,50,0.00,,,0.00,WeatherCatV1.15B25,2013-07-06 21:26:00,
2013-07-06 17:31:00,89.2,67.5,29.97,NNW,344,2.0,5.0,49,0.00,,,0.00,WeatherCatV1.15B25,2013-07-06 21:31:00,
2013-07-06 17:36:00,89.2,68.1,29.97,NW,316,1.0,8.0,50,0.00,,,0.00,WeatherCatV1.15B25,2013-07-06 21:36:00,
2013-07-06 17:42:00,89.3,68.8,29.97,North,349,2.0,2.0,51,0.00,,,0.00,WeatherCatV1.15B25,2013-07-06 21:42:00,
2013-07-06 17:47:00,89.2,68.1,29.97,North,351,2.0,5.0,50,0.00,,,0.00,WeatherCatV1.15B25,2013-07-06 21:47:00,
2013-07-06 17:52:00,89.2,68.7,29.97,WNW,293,4.0,6.0,51,0.00,,,0.00,WeatherCatV1.15B25,2013-07-06 21:52:00,
2013-07-06 17:57:00,89.2,69.8,29.97,NE,37,4.0,4.0,53,0.00,,,0.00,WeatherCatV1.15B25,2013-07-06 21:57:00,
2013-07-06 18:02:00,88.8,68.9,29.97,NNW,345,1.0,6.0,52,0.00,,,0.00,WeatherCatV1.15B25,2013-07-06 22:02:00,
2013-07-06 18:07:00,88.6,68.1,29.97,NNE,12,2.0,6.0,51,0.00,,,0.00,WeatherCatV1.15B25,2013-07-06 22:07:00,
2013-07-06 18:12:00,88.4,69.1,29.97,NW,313,1.0,3.0,53,0.00,,,0.00,WeatherCatV1.15B25,2013-07-06 22:12:00,
2013-07-06 18:17:00,88.4,69.6,29.97,NNE,30,0.0,2.0,54,0.00,,,0.00,WeatherCatV1.15B25,2013-07-06 22:17:00,
2013-07-06 18:22:00,88.2,68.3,29.97,NNW,330,3.0,6.0,52,0.00,,,0.00,WeatherCatV1.15B25,2013-07-06 22:22:00,
2013-07-06 18:27:00,88.1,67.1,29.97,NNW,338,2.0,3.0,50,0.00,,,0.00,WeatherCatV1.15B25,2013-07-06 22:27:00,
2013-07-06 18:32:00,88.1,65.9,29.97,NNW,345,4.0,7.0,48,0.00,,,0.00,WeatherCatV1.15B25,2013-07-06 22:32:00,
2013-07-06 18:38:00,87.9,65.1,29.97,WSW,253,1.0,4.0,47,0.00,,,0.00,WeatherCatV1.15B25,2013-07-06 22:38:00,
2013-07-06 18:44:00,87.7,64.9,29.97,NNW,335,1.0,4.0,47,0.00,,,0.00,WeatherCatV1.15B25,2013-07-06 22:44:00,
2013-07-06 18:49:00,87.6,64.8,29.97,West,262,4.0,4.0,47,0.00,,,0.00,WeatherCatV1.15B25,2013-07-06 22:49:00,
2013-07-06 18:54:00,87.3,64.6,29.97,WNW,284,4.0,4.0,47,0.00,,,0.00,WeatherCatV1.15B25,2013-07-06 22:54:00,
2013-07-06 18:59:00,87.2,63.9,29.97,NW,321,2.0,8.0,46,0.00,,,0.00,WeatherCatV1.15B25,2013-07-06 22:59:00,
2013-07-06 19:04:00,87.3,64.0,29.97,NW,326,1.0,2.0,46,0.00,,,0.00,WeatherCatV1.15B25,2013-07-06 23:04:00,
2013-07-06 19:09:00,87.3,63.3,29.97,WNW,291,3.0,7.0,45,0.00,,,0.00,WeatherCatV1.15B25,2013-07-06 23:09:00,
2013-07-06 19:14:00,87.4,63.4,29.97,NNE,31,0.0,6.0,45,0.00,,,0.00,WeatherCatV1.15B25,2013-07-06 23:14:00,
2013-07-06 19:20:00,87.1,63.1,29.97,NNE,22,3.0,5.0,45,0.00,,,0.00,WeatherCatV1.15B25,2013-07-06 23:20:00,
2013-07-06 19:25:00,86.9,62.3,29.98,NW,307,1.0,6.0,44,0.00,,,0.00,WeatherCatV1.15B25,2013-07-06 23:25:00,
2013-07-06 19:30:00,87.0,62.4,29.98,West,275,1.0,3.0,44,0.00,,,0.00,WeatherCatV1.15B25,2013-07-06 23:30:00,
2013-07-06 19:35:00,87.0,63.1,29.98,North,0,2.0,3.0,45,0.00,,,0.00,WeatherCatV1.15B25,2013-07-06 23:35:00,
2013-07-06 19:40:00,86.9,63.0,29.98,NNW,331,1.0,6.0,45,0.00,,,0.00,WeatherCatV1.15B25,2013-07-06 23:40:00,
2013-07-06 19:45:00,86.5,63.2,29.98,NNW,345,1.0,4.0,46,0.00,,,0.00,WeatherCatV1.15B25,2013-07-06 23:45:00,
2013-07-06 19:50:00,86.2,63.0,29.98,NNW,340,2.0,4.0,46,0.00,,,0.00,WeatherCatV1.15B25,2013-07-06 23:50:00,
2013-07-06 19:55:00,85.9,63.3,29.97,WNW,296,2.0,3.0,47,0.00,,,0.00,WeatherCatV1.15B25,2013-07-06 23:55:00,
2013-07-06 20:00:00,85.6,63.0,29.97,WNW,290,6.0,6.0,47,0.00,,,0.00,WeatherCatV1.15B25,2013-07-07 00:00:00,
2013-07-06 20:05:00,85.3,63.3,29.97,NW,313,3.0,4.0,48,0.00,,,0.00,WeatherCatV1.15B25,2013-07-07 00:05:00,
2013-07-06 20:10:00,85.1,63.8,29.97,NNW,333,3.0,6.0,49,0.00,,,0.00,WeatherCatV1.15B25,2013-07-07 00:10:00,
2013-07-06 20:15:00,85.0,63.7,29.97,NW,304,1.0,3.0,49,0.00,,,0.00,WeatherCatV1.15B25,2013-07-07 00:15:00,
2013-07-06 20:20:00,84.8,64.1,29.97,NW,326,1.0,4.0,50,0.00,,,0.00,WeatherCatV1.15B25,2013-07-07 00:20:00,
2013-07-06 20:25:00,84.6,63.9,29.98,NNW,345,1.0,2.0,50,0.00,,,0.00,WeatherCatV1.15B25,2013-07-07 00:25:00,
2013-07-06 20:31:00,84.2,64.1,29.98,NNW,329,0.0,1.0,51,0.00,,,0.00,WeatherCatV1.15B25,2013-07-07 00:31:00,
2013-07-06 20:36:00,83.9,63.8,29.98,WNW,299,0.0,5.0,51,0.00,,,0.00,WeatherCatV1.15B25,2013-07-07 00:36:00,
2013-07-06 20:41:00,83.8,63.7,29.98,North,3,1.0,3.0,51,0.00,,,0.00,WeatherCatV1.15B25,2013-07-07 00:41:00,
2013-07-06 20:46:00,83.6,63.5,29.99,NNW,345,0.0,3.0,51,0.00,,,0.00,WeatherCatV1.15B25,2013-07-07 00:46:00,
2013-07-06 20:51:00,83.4,63.3,29.99,NW,322,0.0,2.0,51,0.00,,,0.00,WeatherCatV1.15B25,2013-07-07 00:51:00,
2013-07-06 20:56:00,83.3,63.3,29.99,NW,311,0.0,5.0,51,0.00,,,0.00,WeatherCatV1.15B25,2013-07-07 00:56:00,
2013-07-06 21:03:00,83.2,63.2,29.99,NW,326,2.0,4.0,51,0.00,,,0.00,WeatherCatV1.15B25,2013-07-07 01:03:00,
2013-07-06 21:08:00,83.2,62.6,29.99,NW,326,4.0,6.0,50,0.00,,,0.00,WeatherCatV1.15B25,2013-07-07 01:08:00,
2013-07-06 21:13:00,83.1,62.5,29.99,North,359,1.0,5.0,50,0.00,,,0.00,WeatherCatV1.15B25,2013-07-07 01:13:00,
2013-07-06 21:18:00,83.0,62.4,29.99,NNW,344,1.0,6.0,50,0.00,,,0.00,WeatherCatV1.15B25,2013-07-07 01:18:00,
2013-07-06 21:23:00,82.9,62.3,30.00,NNW,345,1.0,2.0,50,0.00,,,0.00,WeatherCatV1.15B25,2013-07-07 01:23:00,
2013-07-06 21:28:00,82.7,62.1,30.00,NNW,337,2.0,2.0,50,0.00,,,0.00,WeatherCatV1.15B25,2013-07-07 01:28:00,
2013-07-06 21:33:00,82.5,62.0,30.00,NNW,335,0.0,1.0,50,0.00,,,0.00,WeatherCatV1.15B25,2013-07-07 01:33:00,
2013-07-06 21:39:00,82.3,61.8,30.00,West,276,2.0,2.0,50,0.00,,,0.00,WeatherCatV1.15B25,2013-07-07 01:39:00,
2013-07-06 21:44:00,82.0,62.6,30.00,WNW,290,0.0,1.0,52,0.00,,,0.00,WeatherCatV1.15B25,2013-07-07 01:44:00,
2013-07-06 21:49:00,81.6,62.8,30.00,WNW,293,1.0,2.0,53,0.00,,,0.00,WeatherCatV1.15B25,2013-07-07 01:49:00,
2013-07-06 21:54:00,81.3,62.5,30.00,North,5,0.0,1.0,53,0.00,,,0.00,WeatherCatV1.15B25,2013-07-07 01:54:00,
2013-07-06 21:59:00,81.0,62.8,30.00,WNW,286,0.0,4.0,54,0.00,,,0.00,WeatherCatV1.15B25,2013-07-07 01:59:00,
2013-07-06 22:04:00,80.8,63.1,30.00,West,272,0.0,1.0,55,0.00,,,0.00,WeatherCatV1.15B25,2013-07-07 02:04:00,
2013-07-06 22:10:00,80.5,63.3,30.00,West,273,0.0,1.0,56,0.00,,,0.00,WeatherCatV1.15B25,2013-07-07 02:10:00,
2013-07-06 22:15:00,80.2,63.1,30.00,North,5,0.0,0.0,56,0.00,,,0.00,WeatherCatV1.15B25,2013-07-07 02:15:00,
2013-07-06 22:21:00,79.8,63.2,30.00,North,5,0.0,1.0,57,0.00,,,0.00,WeatherCatV1.15B25,2013-07-07 02:21:00,
2013-07-06 22:26:00,79.5,62.9,30.00,WNW,287,0.0,2.0,57,0.00,,,0.00,WeatherCatV1.15B25,2013-07-07 02:26:00,
2013-07-06 22:31:00,79.3,63.2,30.00,WNW,287,0.0,0.0,58,0.00,,,0.00,WeatherCatV1.15B25,2013-07-07 02:31:00,
2013-07-06 22:36:00,78.9,62.8,30.01,WNW,287,0.0,0.0,58,0.00,,,0.00,WeatherCatV1.15B25,2013-07-07 02:36:00,
2013-07-06 22:41:00,78.8,62.8,30.00,NW,311,0.0,0.0,58,0.00,,,0.00,WeatherCatV1.15B25,2013-07-07 02:41:00,
2013-07-06 22:46:00,78.8,62.8,30.00,NW,311,0.0,0.0,58,0.00,,,0.00,WeatherCatV1.15B25,2013-07-07 02:46:00,
2013-07-06 22:52:00,78.7,62.2,30.01,NW,311,0.0,1.0,57,0.00,,,0.00,WeatherCatV1.15B25,2013-07-07 02:52:00,
2013-07-06 22:57:00,78.6,62.6,30.01,NW,311,0.0,0.0,58,0.00,,,0.00,WeatherCatV1.15B25,2013-07-07 02:57:00,
2013-07-06 23:02:00,78.4,62.4,30.01,WSW,258,0.0,0.0,58,0.00,,,0.00,WeatherCatV1.15B25,2013-07-07 03:02:00,
2013-07-06 23:07:00,78.3,62.3,30.01,WNW,293,0.0,4.0,58,0.00,,,0.00,WeatherCatV1.15B25,2013-07-07 03:07:00,
2013-07-06 23:13:00,78.3,62.3,30.01,WNW,283,0.0,1.0,58,0.00,,,0.00,WeatherCatV1.15B25,2013-07-07 03:13:00,
2013-07-06 23:18:00,78.1,62.1,30.01,WNW,290,0.0,1.0,58,0.00,,,0.00,WeatherCatV1.15B25,2013-07-07 03:18:00,
2013-07-06 23:24:00,77.9,61.9,30.01,NW,314,0.0,0.0,58,0.00,,,0.00,WeatherCatV1.15B25,2013-07-07 03:24:00,
2013-07-06 23:30:00,77.7,62.2,30.01,NW,314,0.0,0.0,59,0.00,,,0.00,WeatherCatV1.15B25,2013-07-07 03:30:00,
2013-07-06 23:35:00,77.5,62.5,30.01,NW,320,0.0,0.0,60,0.00,,,0.00,WeatherCatV1.15B25,2013-07-07 03:35:00,
2013-07-06 23:40:00,77.4,62.4,30.01,NW,307,0.0,0.0,60,0.00,,,0.00,WeatherCatV1.15B25,2013-07-07 03:40:00,
2013-07-06 23:45:00,77.1,62.1,30.01,NW,307,0.0,0.0,60,0.00,,,0.00,WeatherCatV1.15B25,2013-07-07 03:45:00,
2013-07-06 23:50:00,76.8,62.3,30.01,NW,307,0.0,0.0,61,0.00,,,0.00,WeatherCatV1.15B25,2013-07-07 03:50:00,
2013-07-06 23:55:00,76.6,62.1,30.01,NW,307,0.0,1.0,61,0.00,,,0.00,WeatherCatV1.15B25,2013-07-07 03:55:00,